GFSGL_sfc_wetblb_318.txt.gz
Wetbulb
67.32 66.74 65.55 66.16 65.36 64.83 63.76 63.57 62.75 61.58 61.50 60.11 59.63 59.07 60.75 61.47 61.17 60.39 61.49 61.60 63.00 63.10 62.53 62.94 63.65 64.11 63.17 62.25 62.80 62.00 60.15 59.34 56.65 58.73 61.36 62.10 63.09 62.64 62.92 64.36 64.35 62.41 62.24
68.35 66.47 65.76 65.25 64.85 63.86 63.13 62.92 63.07 61.88 61.56 60.83 60.86 61.18 60.79 59.97 61.05 61.67 61.78 61.60 61.14 60.42 62.49 62.74 62.33 62.57 63.63 63.01 62.16 61.68 60.13 60.36 59.15 56.03 59.10 59.16 59.80 63.67 62.56 61.60 61.82 62.19 61.86
66.76 65.86 65.03 64.43 63.25 62.99 62.43 62.58 62.23 61.53 61.63 60.89 61.08 60.61 60.82 61.00 61.30 61.47 60.60 62.08 62.23 61.53 62.05 62.87 63.09 63.46 63.22 63.52 63.71 61.59 59.49 58.47 58.98 57.39 56.03 58.51 60.35 61.29 60.05 60.08 59.67 60.07 61.41
65.11 64.52 64.16 63.79 63.23 62.83 62.59 62.49 62.42 62.57 61.78 62.55 62.25 62.56 62.08 62.12 62.07 61.62 62.11 62.46 62.73 62.93 63.62 64.44 64.09 63.54 62.84 63.40 61.33 61.25 58.15 57.34 56.35 56.32 56.13 56.89 58.14 59.61 59.03 57.95 57.04 58.69 58.51
66.13 64.89 64.82 64.55 64.73 64.53 63.55 63.17 62.22 62.20 61.73 62.65 61.83 62.50 62.18 62.17 60.83 61.75 62.13 62.63 62.87 63.97 63.71 64.54 63.94 64.81 64.50 62.37 60.11 59.28 59.16 56.77 54.85 53.98 55.12 55.81 56.33 56.81 56.81 57.74 56.39 57.05 57.87
65.25 65.29 66.24 65.92 66.19 65.44 64.47 63.44 63.49 63.51 64.21 64.57 64.19 63.76 63.26 62.17 61.61 62.02 62.52 61.58 62.27 62.07 61.54 62.73 64.57 65.24 64.42 64.20 62.47 61.86 60.15 56.98 55.00 53.83 54.43 54.61 55.45 57.25 58.04 57.42 56.59 55.17 53.25
66.00 65.99 66.29 66.35 65.41 65.12 65.00 64.55 64.39 64.42 64.97 64.62 64.74 64.67 64.08 64.40 62.05 60.81 62.23 61.96 61.84 61.45 62.05 62.46 63.19 62.09 62.65 63.18 62.98 62.14 61.10 61.13 60.24 56.18 54.72 56.00 57.02 58.03 57.32 56.17 57.03 56.22 55.18
66.56 66.00 66.07 65.58 65.19 65.72 64.65 63.44 65.04 64.53 64.65 64.50 64.44 65.77 65.60 65.19 61.83 60.63 61.91 63.31 63.40 63.68 63.75 63.57 63.16 63.31 63.51 63.76 63.24 61.68 59.89 58.20 59.11 59.33 58.55 59.42 59.33 56.68 56.27 57.62 57.92 57.55 57.82
64.88 65.70 65.71 65.81 65.74 64.91 64.18 63.08 62.66 62.74 65.01 64.99 64.89 62.89 63.42 64.63 61.65 60.06 61.21 63.72 63.03 63.02 63.48 64.08 63.88 63.00 63.39 62.37 61.44 60.69 59.83 57.76 59.20 59.03 58.92 58.08 57.51 57.47 57.55 56.31 54.86 55.37 55.13
65.65 66.53 67.37 67.55 66.98 66.34 67.08 67.38 66.27 66.06 64.23 63.06 63.76 65.32 64.28 65.35 61.41 58.47 59.38 63.04 61.99 61.77 62.60 62.89 62.31 62.52 61.88 59.28 59.86 60.43 58.20 57.06 58.56 59.43 58.72 57.10 58.18 59.62 59.63 58.80 57.28 55.97 55.33
66.68 66.81 67.18 67.49 67.18 66.95 67.67 68.28 67.80 65.30 66.04 65.32 65.57 65.05 65.17 64.68 64.30 58.62 56.91 61.96 62.39 61.57 60.87 60.63 61.68 57.50 56.14 56.14 56.13 61.34 59.10 58.87 59.87 57.72 56.66 55.73 57.18 59.76 61.28 60.74 60.41 59.23 55.73
66.96 66.53 66.52 66.82 64.92 64.57 65.38 66.79 66.12 66.27 64.70 63.75 63.31 63.18 63.69 64.50 60.76 59.62 56.92 55.65 61.25 62.08 60.98 61.33 62.01 56.24 54.43 54.83 55.77 56.01 55.91 54.94 55.55 54.31 54.37 54.56 55.82 58.03 59.74 60.92 60.81 60.64 60.18
66.93 66.40 66.48 66.75 66.31 62.74 66.04 64.40 62.98 64.01 62.24 61.11 60.79 60.87 61.36 63.53 66.18 57.54 57.08 56.16 56.14 58.22 62.43 61.29 58.36 56.25 53.02 53.78 53.57 54.33 55.11 55.24 54.00 53.88 53.85 54.67 56.62 59.30 61.61 61.25 60.76 62.57 62.76
66.03 66.08 65.91 65.46 64.79 65.43 64.15 63.79 63.18 61.63 61.31 60.71 60.55 59.58 61.54 63.75 64.48 63.48 63.15 61.78 57.10 58.06 59.15 60.10 59.69 58.33 57.36 58.18 58.36 57.42 56.25 56.35 56.04 55.48 55.47 56.40 58.09 58.77 57.55 59.09 57.85 58.22 57.70
65.45 64.88 64.33 63.24 63.68 63.04 64.52 62.51 61.90 64.04 61.30 61.23 60.91 60.27 59.09 58.70 59.61 56.01 55.68 59.13 59.89 58.27 57.84 59.36 58.93 58.88 58.71 59.09 59.84 60.70 60.81 59.63 57.17 57.48 56.61 56.55 56.85 57.41 56.87 58.59 57.78 57.42 56.20
64.78 62.81 61.34 60.95 61.52 61.97 62.89 63.50 57.48 54.93 52.61 49.34 48.84 54.05 59.53 53.48 50.26 48.61 47.70 47.12 47.10 48.11 54.81 57.10 57.71 58.08 58.08 58.43 58.81 59.36 60.22 60.48 61.39 60.03 58.33 56.82 56.16 56.43 56.99 57.04 56.69 56.50 55.11
65.24 63.56 61.21 59.90 61.14 62.12 62.36 61.90 60.64 59.70 51.06 49.86 47.81 47.04 45.90 51.00 48.43 46.71 46.03 45.17 45.71 47.13 55.11 56.42 57.46 58.42 58.61 58.77 59.05 59.04 56.26 56.40 57.04 56.42 56.20 54.88 55.08 56.48 56.66 56.13 55.98 55.72 54.61
65.58 57.13 61.41 61.33 61.21 61.52 61.55 61.63 61.83 61.23 60.68 61.31 53.00 49.28 48.64 45.13 44.74 44.16 43.17 49.43 55.14 53.22 57.31 56.36 57.27 58.52 58.73 58.26 57.86 58.03 58.89 58.82 56.30 56.58 55.80 55.88 54.88 55.00 54.20 54.30 54.70 53.72 53.63
63.95 62.63 62.77 62.62 62.50 61.46 62.94 61.90 61.03 60.52 60.56 60.92 62.09 58.35 50.26 44.66 43.01 44.26 45.52 54.67 56.12 56.38 56.26 56.82 57.04 55.94 56.86 57.66 57.92 58.55 58.65 58.26 58.15 56.66 55.52 55.26 54.68 53.99 53.22 53.47 53.29 50.98 51.23
62.75 59.94 59.55 62.35 62.00 61.50 61.33 61.15 61.44 61.46 61.74 61.75 61.97 61.76 61.05 57.84 58.55 58.30 55.38 59.28 59.66 58.63 59.95 58.97 57.99 57.83 56.76 56.68 56.82 57.14 57.19 56.40 57.21 55.78 55.60 55.15 55.03 55.03 53.65 53.54 53.28 52.12 51.40
63.06 63.06 61.22 62.28 62.01 61.87 61.60 59.76 61.52 61.70 60.16 60.48 61.52 60.47 52.34 59.68 60.06 62.20 61.08 61.41 60.04 60.28 60.48 59.98 59.13 59.49 59.19 58.74 57.07 56.44 56.13 55.62 55.43 55.34 55.09 54.38 54.03 52.35 52.82 53.11 52.80 53.09 53.01
62.83 62.16 61.74 61.47 61.76 62.25 62.50 62.81 62.77 62.52 61.76 61.46 61.40 61.40 49.45 58.82 59.40 59.96 60.54 61.05 60.35 60.63 60.93 60.13 59.52 58.95 57.67 57.56 57.43 56.56 55.36 54.22 53.87 52.34 50.82 50.77 51.44 51.03 51.01 50.86 50.34 49.78 49.36
61.37 61.80 61.93 62.14 62.35 59.55 59.37 59.56 61.32 61.56 59.86 59.67 60.56 62.66 61.58 59.68 59.36 59.89 60.34 60.44 60.10 59.95 60.02 59.53 58.75 57.72 58.85 58.92 57.55 56.67 53.12 49.77 48.55 48.64 47.98 47.23 47.35 47.95 49.17 49.41 49.57 49.03 49.10
62.37 62.76 62.49 61.95 62.12 62.68 62.76 63.14 61.49 56.27 59.67 59.25 61.04 60.74 59.73 59.76 59.16 59.40 59.45 59.33 60.60 59.32 59.02 58.66 57.85 56.90 57.75 56.51 56.44 48.04 47.25 46.34 47.89 47.12 45.88 46.37 45.96 45.46 46.79 47.15 49.15 50.31 50.09
63.22 62.19 61.45 61.47 62.71 63.37 61.69 59.88 61.85 60.97 61.03 59.88 59.31 58.76 58.38 58.32 57.35 57.02 56.73 56.34 55.65 56.84 56.22 56.79 57.76 56.58 55.93 55.48 54.51 47.73 37.01 32.36 42.43 36.53 44.25 43.84 44.68 45.42 46.03 47.57 48.52 48.17 48.90
62.22 63.01 59.12 59.20 58.85 60.09 61.19 61.63 60.39 60.35 59.64 58.93 58.51 58.08 57.34 55.85 55.13 54.86 55.17 55.30 54.28 54.51 53.55 53.17 52.39 53.26 53.54 53.02 49.56 38.36 32.52 30.32 37.69 31.83 37.82 43.31 44.56 45.35 46.86 47.47 47.76 47.10 47.27

GFSGL_sfc_wetblb_321.txt.gz
Wetbulb
65.61 63.96 64.43 64.41 63.98 63.75 62.02 60.86 59.91 59.71 58.45 57.66 57.42 57.61 59.27 59.67 59.23 58.68 59.85 59.66 60.01 60.66 57.57 58.65 61.13 61.68 61.21 59.43 60.13 59.17 56.88 56.73 54.25 55.61 56.99 57.17 56.16 56.01 58.94 59.73 59.93 58.40 58.84
65.64 63.90 63.79 64.00 62.92 62.26 62.09 62.06 62.37 61.60 60.18 58.22 58.58 59.06 58.71 58.54 58.42 59.29 58.65 60.10 58.45 58.34 58.32 59.44 59.43 62.33 59.86 59.40 59.54 57.64 56.52 55.94 54.06 53.00 54.17 54.20 54.10 56.59 57.79 56.90 58.89 60.49 58.53
64.57 64.61 63.37 63.04 62.20 61.46 61.68 61.85 60.93 59.88 58.60 58.72 58.96 58.23 58.13 57.60 58.03 57.99 57.46 57.37 57.63 57.90 58.21 59.24 59.21 59.57 59.66 60.14 59.56 58.45 57.07 57.07 54.62 52.48 53.43 53.77 55.04 56.01 56.48 55.95 56.58 56.30 59.07
63.78 63.69 62.44 62.34 62.17 61.67 61.06 59.98 59.43 59.41 58.55 57.71 57.84 57.78 57.52 57.28 56.97 56.24 56.98 57.67 58.24 59.30 59.76 60.17 61.08 59.73 58.78 58.91 59.81 56.72 56.52 54.79 52.97 52.94 51.92 52.94 54.23 55.37 55.70 55.11 55.66 55.50 55.76
63.18 62.94 62.83 62.83 61.38 61.52 59.87 59.45 58.76 57.73 57.92 57.17 56.19 56.36 56.19 57.91 59.42 57.30 58.01 57.66 58.25 58.70 60.31 60.20 60.55 62.02 64.83 63.28 57.77 56.40 54.79 53.69 52.59 51.23 50.77 52.06 53.00 53.67 53.62 55.30 54.93 55.40 55.26
64.06 63.60 63.44 63.29 61.73 60.68 59.84 57.90 56.97 56.78 56.85 56.67 56.18 57.14 58.04 60.25 61.16 61.80 59.66 57.52 57.43 57.08 56.62 57.38 58.90 63.24 62.29 63.76 64.00 63.62 58.34 53.87 52.09 51.04 50.50 50.45 51.63 52.96 55.59 54.99 54.52 52.84 52.49
62.66 63.64 62.94 61.78 60.59 59.31 58.51 57.63 57.28 57.47 58.38 58.71 58.81 59.05 58.92 59.19 61.24 60.77 62.12 56.90 56.56 56.43 56.49 57.12 59.04 61.81 62.58 58.69 60.91 62.96 62.24 61.50 58.85 52.63 50.49 50.95 51.63 53.95 54.66 55.20 51.95 52.82 53.97
61.52 61.69 61.32 60.57 59.68 59.89 59.44 58.71 58.39 58.65 58.81 58.61 59.00 59.55 59.51 60.48 61.68 60.30 60.93 58.01 57.25 58.45 59.15 59.37 59.06 59.83 60.09 60.15 59.46 58.98 58.98 57.76 58.36 59.09 56.94 55.91 54.68 56.07 56.08 54.80 51.42 53.64 54.90
60.86 60.45 60.59 60.69 60.41 60.13 59.25 58.96 60.01 60.72 59.09 60.28 59.11 58.32 57.27 58.59 60.04 59.79 59.04 57.71 58.52 58.98 60.05 60.32 59.93 59.81 60.93 60.54 60.26 58.85 59.15 58.52 59.07 58.35 58.26 58.00 58.07 58.05 57.00 52.34 52.12 50.26 50.84
60.08 60.79 61.11 60.83 59.80 59.08 58.86 58.91 59.55 58.81 58.41 59.55 60.07 59.85 59.95 59.26 59.38 58.55 57.74 57.77 57.77 58.43 57.60 58.16 60.21 59.58 58.75 58.23 58.50 59.30 57.29 57.34 57.07 54.66 54.14 55.59 56.22 54.29 57.71 55.79 54.94 51.24 51.40
60.96 60.24 60.51 59.93 59.03 58.79 58.88 59.66 59.31 58.20 57.95 58.30 58.64 59.45 59.72 59.74 60.10 58.19 56.85 57.67 58.65 57.70 57.59 57.99 57.90 57.25 55.20 54.06 55.01 56.09 56.93 58.41 57.40 55.33 54.67 52.88 52.89 52.45 53.72 55.44 56.43 55.13 52.25
59.35 59.52 59.46 59.50 60.59 60.23 59.36 60.27 59.06 58.26 57.48 57.39 57.96 58.31 59.69 59.91 58.64 58.71 57.18 56.17 58.91 58.05 58.40 59.63 58.19 56.06 54.57 53.39 53.60 54.48 54.96 55.96 54.77 52.90 50.46 51.79 52.21 52.63 54.03 54.70 57.36 57.14 57.18
59.50 58.98 59.24 60.33 60.44 60.48 60.11 58.69 58.66 58.52 57.93 55.92 56.25 55.89 57.51 58.17 59.71 57.10 56.70 56.45 56.18 56.55 58.98 59.25 58.02 55.65 54.50 54.40 53.66 53.66 54.67 53.96 53.34 52.53 52.20 52.76 53.45 54.40 54.79 54.48 55.92 55.55 55.21
59.40 59.37 59.72 59.61 59.73 60.36 60.00 59.56 59.24 58.66 57.04 56.58 56.52 55.99 55.69 56.60 56.21 57.65 57.28 56.92 56.10 56.10 57.08 56.88 57.24 56.80 56.02 56.63 56.19 56.76 55.39 54.66 54.52 54.09 53.91 54.52 55.25 55.48 54.75 56.19 54.87 54.83 53.13
60.07 59.93 59.53 60.15 59.52 59.45 60.29 60.41 59.33 57.60 56.80 56.21 56.17 56.02 54.25 52.55 54.33 53.86 54.36 54.09 52.98 50.58 50.93 51.40 51.94 52.69 53.65 54.84 55.60 55.99 56.64 56.94 54.99 55.29 54.93 55.22 55.76 56.39 55.41 56.44 55.79 54.73 53.74
59.26 58.95 57.93 55.23 55.48 55.58 56.36 57.19 56.98 55.11 53.65 50.98 49.32 52.04 56.62 52.83 50.25 48.26 45.16 44.83 46.05 48.19 49.35 50.97 51.73 53.94 53.96 54.54 55.52 55.96 56.80 55.34 55.10 54.52 54.87 55.78 55.58 55.34 55.24 55.96 56.78 56.13 54.57
58.62 59.01 58.07 55.93 55.89 55.97 55.25 55.06 55.05 55.87 50.85 50.34 48.44 47.19 45.34 48.46 47.06 44.06 44.15 45.16 47.58 46.83 51.72 53.71 54.95 54.64 54.09 54.55 55.70 56.12 55.90 57.34 57.30 56.90 55.82 55.84 55.74 54.82 54.43 54.76 55.46 55.48 54.89
60.61 57.82 56.43 55.77 55.46 55.27 55.46 55.83 56.06 54.61 54.61 55.44 52.35 47.74 47.30 44.92 42.78 43.87 43.60 46.84 51.39 51.23 54.15 55.13 55.42 53.62 55.34 54.55 55.09 55.84 54.67 55.84 55.60 55.72 55.74 55.17 54.37 53.83 52.91 52.34 52.91 52.65 52.71
60.72 59.04 57.81 57.22 56.99 57.08 57.53 57.28 56.67 55.19 54.54 54.63 56.92 55.08 51.95 42.10 43.39 44.64 46.09 53.49 53.92 53.02 56.14 56.98 55.00 54.31 53.67 53.93 54.65 53.61 54.52 53.45 54.83 55.40 53.71 53.01 52.52 51.93 51.15 50.94 51.50 50.00 50.83
59.73 59.12 58.48 58.54 58.13 56.72 56.09 55.46 54.91 54.99 55.11 56.70 57.54 58.38 56.88 57.22 56.82 57.34 56.08 53.49 53.78 56.86 57.69 57.40 56.58 54.59 54.35 53.95 53.47 53.36 53.53 54.56 52.53 53.57 50.61 51.19 51.33 50.80 49.86 49.61 50.68 50.81 51.56
57.20 57.38 58.93 58.41 57.74 57.85 57.76 56.88 57.02 57.10 57.02 57.64 58.13 56.28 51.91 57.53 55.91 56.28 56.18 57.04 57.34 58.23 57.64 57.06 55.68 55.29 54.99 55.88 54.21 52.43 51.83 52.44 51.49 50.58 48.18 46.64 47.10 46.44 46.53 47.00 47.17 47.26 49.16
57.73 57.66 56.96 55.91 56.14 57.02 58.10 58.63 57.77 57.74 56.20 56.48 57.52 56.55 49.89 54.91 57.10 56.88 58.09 57.56 57.20 56.48 55.94 56.32 53.96 53.60 53.84 54.40 52.80 51.93 50.47 48.80 45.99 43.36 42.37 42.15 41.92 42.13 43.02 44.68 44.93 45.33 45.78
57.23 56.52 55.92 56.22 56.73 56.99 57.29 58.11 58.19 57.42 58.20 57.36 56.87 56.93 57.64 57.83 58.48 57.04 57.35 55.88 54.93 55.29 54.57 53.85 53.30 52.28 52.38 52.74 52.33 50.37 44.55 45.27 43.17 42.56 40.42 40.77 40.74 40.85 40.78 40.70 41.91 43.51 44.58
57.33 56.91 57.29 58.86 59.19 58.96 59.16 58.92 58.03 54.83 56.18 57.41 56.36 55.29 55.93 54.21 53.99 53.71 54.10 53.44 54.16 53.54 53.41 53.09 53.30 52.35 51.81 51.56 44.51 43.48 43.83 42.81 42.25 40.63 40.79 40.42 39.41 39.31 39.73 40.11 41.18 42.78 45.65
58.49 58.55 59.26 58.99 59.36 58.08 57.99 57.68 58.23 57.95 56.97 56.03 54.75 54.07 53.16 51.11 51.26 51.09 50.94 50.89 50.28 49.85 49.31 48.78 48.34 49.51 51.41 49.44 43.83 42.53 35.27 31.86 38.33 36.53 38.71 38.74 38.93 39.40 39.63 40.44 42.07 44.50 46.60
57.46 57.49 57.79 57.62 58.36 57.82 58.47 58.59 58.34 57.12 56.06 53.95 52.92 50.69 50.20 49.98 49.97 49.77 49.46 49.01 48.30 48.19 48.31 48.35 48.89 49.46 49.32 45.56 42.73 36.63 32.47 31.15 35.64 32.19 35.83 40.05 39.72 40.71 40.83 41.24 42.60 42.64 43.73

GFSGL_sfc_wetblb_324.txt.gz
Wetbulb
63.33 63.98 63.97 63.81 62.92 62.20 60.27 60.27 60.34 57.21 56.91 56.15 56.31 57.79 58.37 58.10 58.12 57.80 57.65 58.35 58.19 58.57 56.58 58.83 59.91 59.68 60.22 59.20 59.31 58.50 56.25 55.81 52.84 54.45 56.64 57.24 56.02 55.81 58.62 58.09 58.65 57.65 57.41
62.63 62.92 63.10 62.73 62.70 61.72 61.12 59.38 58.84 57.99 57.39 56.95 56.99 58.01 57.69 57.36 57.42 57.26 57.73 58.24 57.01 56.52 57.24 57.60 57.20 60.35 57.98 59.22 59.50 56.34 54.77 54.22 53.47 52.27 52.27 53.95 54.25 54.64 57.16 55.82 57.36 59.28 56.46
63.52 61.91 62.63 61.96 61.47 61.32 61.57 61.61 60.67 58.52 57.15 57.69 57.63 57.25 56.67 56.11 56.36 56.84 56.73 56.23 55.77 55.28 56.17 56.98 57.90 58.79 58.53 58.29 58.24 57.30 55.47 55.74 54.08 51.35 50.16 51.77 52.04 55.40 54.79 54.86 55.14 55.48 57.59
64.02 63.11 61.63 61.70 61.34 61.09 61.37 60.21 58.45 57.89 57.01 56.19 56.25 55.83 55.71 55.61 55.85 54.70 54.12 55.34 56.23 57.63 57.95 58.20 58.86 58.92 57.27 57.42 57.68 57.86 55.81 53.70 52.48 51.09 50.02 48.96 51.30 53.39 54.39 53.51 54.68 54.27 54.51
62.61 61.76 61.93 61.99 61.69 60.44 58.45 58.35 57.89 57.37 56.84 56.61 55.71 55.22 55.14 55.92 57.16 55.57 56.14 56.10 55.81 56.52 57.80 58.90 58.47 60.18 64.33 63.07 59.73 57.32 54.99 53.37 52.17 50.96 49.76 49.35 49.45 49.61 49.75 53.20 53.99 54.93 53.48
62.66 62.26 62.50 61.54 59.79 58.35 57.63 56.91 55.73 55.63 55.26 54.72 54.13 55.22 55.35 57.72 59.97 61.48 58.81 54.99 55.37 56.42 55.27 55.07 55.97 59.67 59.96 62.55 63.16 63.61 61.13 55.00 52.96 50.51 49.80 49.03 48.96 50.20 51.86 51.60 53.42 51.95 49.56
62.95 62.85 60.96 60.07 59.21 58.45 57.57 55.69 54.80 54.54 55.08 55.31 55.43 56.32 56.76 57.26 60.15 60.47 62.11 57.02 55.49 54.60 54.43 54.80 56.24 59.92 60.70 58.66 60.10 61.35 61.22 62.66 60.36 53.22 51.06 50.74 49.60 50.63 51.29 52.08 51.35 49.03 48.97
60.64 60.66 60.48 59.76 58.40 57.40 56.31 55.57 55.31 55.57 55.85 56.21 56.84 57.38 57.58 58.90 59.85 59.70 60.94 58.92 56.03 55.42 55.84 56.44 56.72 57.42 58.27 58.97 58.21 57.50 57.62 57.57 58.05 59.74 54.51 55.39 52.98 53.93 52.87 53.69 52.71 50.70 51.12
59.93 59.91 59.75 58.64 57.88 57.91 56.98 56.58 56.45 56.72 57.20 57.60 57.95 57.51 56.68 57.08 58.06 58.27 58.46 56.56 56.25 56.27 57.47 58.00 58.18 57.90 59.39 59.50 57.92 57.62 56.98 57.61 59.89 59.47 59.53 59.32 58.56 58.11 57.49 51.43 50.63 48.24 48.15
59.88 59.39 59.10 59.09 58.55 58.27 57.91 57.49 57.73 57.77 55.38 56.46 56.86 57.15 57.89 57.47 57.47 57.08 57.62 56.70 55.75 56.01 56.47 57.14 59.26 58.19 57.74 57.18 55.85 54.82 54.30 56.56 57.09 56.11 54.36 55.81 57.51 56.90 58.63 54.86 53.28 48.93 48.71
58.79 59.28 59.25 58.86 58.13 57.71 57.47 57.19 56.84 56.31 56.29 55.35 55.79 56.75 57.28 57.54 57.85 56.59 56.68 57.23 56.75 56.13 56.03 57.35 57.36 57.12 55.30 53.92 53.51 53.50 54.97 56.59 56.48 55.89 54.97 54.80 54.17 53.64 53.94 53.40 52.81 51.90 50.64
58.74 58.37 58.38 57.77 58.71 58.47 56.37 56.92 59.48 56.33 55.43 54.92 55.18 55.89 57.16 57.70 56.69 56.88 55.90 55.45 58.24 57.08 57.35 58.21 57.83 55.38 53.63 52.87 53.04 53.45 53.41 55.13 54.97 54.19 53.51 53.41 54.01 54.45 54.64 53.80 53.16 52.80 55.35
56.90 56.88 57.23 57.63 57.71 57.69 56.58 56.79 55.73 56.01 55.67 55.83 54.97 54.64 55.95 57.09 56.44 55.85 54.93 55.19 55.45 57.07 58.73 58.33 56.34 54.37 53.15 54.19 54.90 54.86 54.86 53.98 52.62 52.64 53.57 53.80 53.93 54.15 52.99 51.71 52.12 52.32 53.91
56.70 56.63 57.02 56.85 57.20 57.68 58.04 56.15 56.15 56.17 55.67 55.83 55.22 55.00 56.03 56.04 56.17 55.85 55.46 55.81 55.59 56.21 57.25 56.35 56.91 56.07 55.09 55.93 55.58 55.75 55.22 55.47 54.82 54.14 53.14 52.54 52.69 51.77 51.90 52.95 52.03 53.02 52.79
57.32 57.68 57.47 57.68 57.30 57.38 57.30 58.46 57.66 58.64 58.21 56.98 56.82 56.43 54.84 55.04 56.12 53.19 51.19 54.72 55.33 53.55 51.85 50.66 50.34 50.58 52.59 51.96 52.34 53.06 53.99 53.35 53.34 53.33 53.26 53.50 54.32 54.65 54.91 54.63 54.07 53.30 53.10
57.14 57.66 57.81 55.97 53.96 53.29 53.43 54.32 55.01 54.92 53.26 50.73 50.66 52.48 57.19 52.69 49.71 45.14 45.77 45.72 46.37 47.36 47.90 49.14 50.33 51.96 51.92 53.14 53.22 54.51 54.40 54.14 54.16 54.08 54.60 55.16 53.73 54.98 54.88 55.53 55.30 54.30 52.79
57.43 57.25 56.95 56.13 54.51 53.63 53.55 52.12 51.83 54.33 49.81 49.21 47.65 47.08 45.72 49.08 45.70 42.73 42.71 44.06 45.05 47.40 47.63 50.46 51.78 53.00 52.91 53.34 54.93 53.94 53.60 53.74 54.29 54.34 53.33 53.63 54.37 55.22 54.44 53.80 53.52 53.38 53.64
58.16 55.98 57.30 56.07 54.70 53.51 52.94 53.00 53.22 53.00 53.44 55.96 51.87 47.71 48.06 43.94 43.01 42.09 42.58 44.56 49.83 48.32 49.27 52.11 53.30 54.56 55.16 55.24 53.22 52.71 52.99 52.67 52.53 53.19 52.73 54.66 54.19 52.24 51.40 52.15 51.51 51.56 51.65
60.64 59.92 57.77 56.76 55.43 54.70 54.52 54.29 54.39 54.83 54.81 54.51 55.12 52.07 45.98 43.09 42.58 42.23 43.73 51.52 53.95 52.85 52.38 52.88 54.98 56.11 55.68 53.66 52.51 52.34 52.09 51.80 51.42 51.48 51.78 53.56 51.33 51.53 50.68 49.21 49.23 48.02 48.87
59.88 58.84 57.89 56.82 55.91 55.56 55.50 55.46 56.03 56.00 54.47 54.67 54.13 54.42 54.60 51.93 54.82 53.40 50.92 52.16 52.96 54.28 55.22 54.82 55.28 54.34 53.11 52.87 52.71 51.84 51.70 51.62 50.70 52.70 51.82 50.26 46.86 46.34 46.07 45.55 45.73 45.40 45.41
61.26 59.13 59.02 57.25 56.23 56.42 55.73 55.50 55.33 54.87 55.85 55.77 55.62 56.10 49.88 55.53 55.06 53.90 53.76 54.16 55.30 54.70 54.52 54.20 53.84 52.79 52.65 52.49 53.27 53.59 52.53 51.98 52.33 49.00 42.90 41.61 40.70 40.52 41.09 42.08 43.17 44.53 44.22
56.38 55.56 55.10 54.81 55.73 54.51 54.62 54.65 54.85 55.12 55.67 55.24 54.33 55.23 49.66 52.39 53.97 54.33 54.71 55.43 55.71 55.17 54.47 52.72 51.83 51.38 51.14 50.99 51.04 50.04 49.06 49.44 46.91 45.09 41.24 39.64 39.46 39.60 39.65 39.53 39.42 40.19 41.49
55.79 56.13 55.12 54.34 55.62 54.98 55.73 57.56 58.14 58.13 56.67 56.11 56.03 55.73 54.89 55.03 55.17 54.96 54.64 55.07 53.92 53.25 52.32 51.71 51.41 50.86 50.77 51.01 50.83 50.25 47.82 44.68 46.10 42.53 39.25 39.10 38.70 38.25 37.96 37.96 38.60 39.11 39.17
56.56 56.32 55.30 54.33 55.11 56.49 56.58 56.48 56.38 53.83 55.81 55.75 56.32 55.38 53.09 51.92 52.05 52.62 51.66 51.57 52.00 51.79 50.91 49.70 48.47 49.50 50.56 50.23 48.23 43.40 44.56 43.74 42.79 42.11 42.33 40.58 38.28 39.39 37.48 37.63 38.56 39.36 40.15
57.47 56.21 54.95 54.32 55.95 56.51 57.05 56.34 56.53 56.92 55.91 54.96 53.94 52.05 50.78 50.34 49.36 49.13 49.02 48.91 47.61 47.44 47.17 46.66 46.54 46.57 47.44 47.78 43.68 40.91 36.55 33.90 40.07 37.18 40.60 40.60 40.45 40.59 41.24 39.77 39.90 39.91 40.60
55.89 55.87 55.24 54.79 55.65 56.65 57.51 55.97 56.24 54.98 54.67 52.86 50.95 50.55 50.28 49.23 48.75 48.18 47.86 47.43 45.61 45.73 45.13 45.54 45.11 46.77 45.51 43.30 40.80 34.51 32.15 32.06 36.83 33.49 37.33 38.91 40.30 39.70 38.17 38.49 39.49 39.49 39.62

GFSGL_sfc_wetblb_330.txt.gz
Wetbulb
65.92 65.69 65.33 65.03 64.80 64.94 64.24 62.61 60.91 59.78 58.60 58.10 58.48 59.01 59.30 59.75 59.84 59.00 59.90 60.57 60.97 60.51 61.15 61.39 60.62 61.45 60.86 59.02 59.98 58.99 57.36 56.72 52.26 55.44 56.31 58.07 57.59 58.18 59.36 60.99 61.04 60.60 60.21
65.22 64.11 63.47 63.50 63.07 62.59 62.05 60.58 59.11 57.60 57.59 58.47 59.07 59.28 59.39 59.41 58.97 59.20 60.21 60.35 59.73 59.06 58.98 58.96 59.51 60.36 59.95 60.61 60.69 59.96 58.72 58.34 56.66 55.81 56.06 55.73 57.31 57.65 58.89 58.85 58.70 59.18 59.87
63.87 63.16 62.75 62.21 61.48 60.67 59.40 58.78 58.39 58.08 57.79 58.36 58.92 58.74 57.93 58.25 58.34 58.73 58.54 58.13 57.51 57.36 58.69 59.52 59.88 60.88 59.73 59.40 59.78 59.79 59.79 58.51 57.51 55.62 55.43 55.51 55.58 56.51 57.11 58.10 58.35 59.47 58.86
63.26 62.11 61.48 61.11 61.17 61.26 61.19 60.93 59.29 58.07 57.99 58.27 58.28 57.75 56.87 57.44 58.06 57.70 56.96 56.67 57.12 57.84 58.79 59.31 60.00 60.96 59.67 59.47 59.61 60.13 59.97 58.47 57.16 55.58 55.30 54.96 54.43 56.73 55.53 55.43 55.79 56.79 56.77
62.00 61.21 60.76 61.29 61.71 61.24 60.75 59.84 58.57 58.29 57.28 57.23 57.13 56.57 56.68 56.99 56.56 56.37 56.44 56.64 57.10 57.36 57.81 58.72 59.87 60.88 60.67 61.38 61.08 61.31 59.93 58.54 57.14 56.25 55.19 54.81 54.82 55.29 55.47 56.65 55.37 56.08 57.33
61.86 61.17 61.36 60.98 61.02 60.67 59.35 58.56 58.15 57.64 57.30 57.13 56.51 56.24 55.90 56.62 58.58 59.81 58.25 57.36 57.45 57.31 57.21 58.09 58.11 59.00 59.43 60.13 61.69 62.93 62.23 60.26 58.83 56.81 56.70 55.78 57.59 56.30 56.04 55.87 55.37 55.66 55.45
60.56 61.23 61.72 61.00 59.40 58.46 58.28 57.43 56.84 56.28 56.14 55.78 55.52 55.74 56.70 57.65 58.44 59.40 61.17 60.84 59.34 58.72 57.87 57.64 57.65 58.76 60.30 60.41 59.75 60.35 61.15 61.65 62.27 60.69 58.52 58.58 57.59 59.00 57.43 56.70 55.64 55.38 55.84
60.79 60.52 59.76 59.28 58.36 57.77 56.99 55.79 55.21 55.58 55.90 56.37 56.79 57.18 57.50 58.68 58.41 58.38 59.88 61.49 60.59 60.12 59.53 59.06 58.58 58.50 58.79 59.02 59.43 59.71 60.35 60.41 60.61 60.70 61.56 61.32 60.61 61.47 58.87 59.32 58.55 56.73 56.22
59.88 59.52 59.58 59.27 58.46 57.90 56.88 56.01 55.94 56.28 56.73 57.21 57.79 58.01 57.94 58.72 56.95 57.07 58.62 59.69 59.40 59.42 59.99 59.74 58.93 58.67 58.34 58.03 59.64 59.59 59.72 59.75 59.43 58.81 59.23 59.36 59.43 58.75 59.22 57.65 56.30 54.49 54.98
59.74 60.13 60.13 59.97 59.31 58.41 57.69 56.96 57.23 57.51 57.92 58.32 58.69 58.81 58.21 58.57 56.43 55.23 56.86 58.48 58.42 58.31 59.25 59.29 58.49 59.17 56.94 56.36 59.40 59.32 57.98 58.83 59.34 59.38 59.33 59.07 59.44 60.00 59.11 59.92 58.80 55.28 55.63
60.79 60.64 60.35 59.95 59.19 58.81 58.58 58.55 58.34 58.34 58.20 58.06 57.78 58.17 58.25 57.90 58.38 54.44 54.68 58.31 58.21 58.24 58.27 58.96 59.02 56.57 55.17 54.24 54.78 59.16 58.43 59.77 58.84 58.57 58.30 58.25 58.71 58.99 58.60 58.30 58.95 57.70 55.85
60.44 60.28 59.96 59.54 59.40 59.65 58.97 59.03 58.48 58.09 57.21 56.89 56.55 56.73 57.52 58.56 55.63 55.49 54.03 54.38 57.56 58.25 58.99 59.85 59.88 54.44 52.71 52.55 53.77 54.52 53.67 55.09 57.45 57.43 56.89 56.73 57.08 57.42 58.18 58.76 58.89 57.80 58.33
59.25 59.57 59.64 59.59 59.39 59.27 57.80 57.59 56.67 57.22 56.79 56.74 56.20 56.35 56.86 58.63 58.38 54.21 53.50 53.79 54.46 56.79 58.62 58.32 55.68 53.17 51.36 52.77 52.67 53.17 53.66 57.19 56.63 55.49 55.76 54.73 55.57 57.88 58.38 57.65 57.95 57.53 56.55
58.10 58.04 58.55 58.29 58.22 58.04 57.86 57.54 57.10 56.91 56.78 56.34 56.38 56.43 57.01 57.81 58.31 59.36 58.53 58.19 55.61 57.25 57.45 58.23 57.57 56.69 55.31 56.70 56.91 57.44 57.58 57.08 55.62 56.12 56.31 57.27 56.59 55.71 56.69 57.39 56.72 57.12 56.05
57.30 57.30 57.16 57.55 57.59 57.62 57.79 58.29 58.04 58.99 57.97 58.26 57.93 58.04 57.52 57.32 58.29 55.24 55.40 58.44 58.23 55.55 55.10 56.62 56.18 56.33 55.49 55.37 54.60 55.55 56.37 56.03 55.62 56.72 56.81 56.08 55.49 57.27 57.25 57.63 56.65 55.49 52.67
56.80 56.73 56.87 57.30 57.53 57.77 58.07 58.19 53.85 53.69 51.09 48.98 48.61 52.94 58.61 53.25 49.97 47.80 45.73 44.74 44.78 45.96 52.72 54.13 54.25 53.58 53.03 53.62 54.07 54.82 55.87 56.30 58.35 58.15 57.56 57.32 55.86 56.31 55.71 56.13 55.59 53.69 52.22
57.55 57.47 57.47 56.86 57.96 57.81 56.84 55.86 55.75 56.11 48.99 48.01 46.03 45.20 45.15 49.15 47.01 45.57 43.49 43.12 43.11 45.64 51.08 52.43 52.33 53.03 53.76 54.77 55.36 55.92 56.74 58.29 58.29 57.30 57.17 56.23 55.14 54.83 53.98 53.98 52.44 51.95 50.47
58.89 54.64 59.00 58.58 58.24 57.86 57.27 57.01 56.17 54.78 54.52 56.11 51.08 48.42 46.26 43.70 43.59 42.40 42.07 43.67 52.24 48.95 51.67 52.13 52.54 54.42 55.15 55.89 57.30 57.44 57.26 56.95 56.83 56.75 56.09 56.01 55.39 54.22 54.18 53.88 51.66 50.09 49.32
60.03 60.56 59.30 59.38 58.58 57.70 58.02 57.16 56.38 55.33 55.17 55.94 57.47 54.04 50.35 43.35 42.71 42.08 41.37 56.07 55.53 55.39 55.37 54.83 55.57 56.01 56.96 57.68 57.28 56.67 55.79 54.30 53.69 54.09 54.78 54.70 55.31 54.85 53.92 51.15 51.24 45.62 46.33
61.05 59.32 59.49 59.12 59.21 58.40 57.83 57.37 57.15 56.89 56.70 56.75 56.77 57.09 57.95 51.52 54.46 55.37 51.85 53.50 54.70 55.47 56.44 56.62 57.44 57.98 57.34 56.60 55.77 54.99 54.25 53.73 53.76 54.72 55.31 55.25 53.36 49.70 47.55 46.21 44.94 44.77 44.67
60.35 60.65 59.68 59.58 59.45 59.17 58.55 58.03 58.27 57.66 57.00 56.41 56.50 56.97 50.62 56.97 57.34 57.88 58.07 57.38 57.08 57.59 58.21 58.17 58.11 56.82 55.69 55.31 54.92 54.56 54.21 54.07 54.03 53.99 54.38 49.06 46.84 45.03 44.25 44.16 44.79 44.46 44.01
61.24 60.90 60.91 59.90 60.24 59.62 59.19 59.10 58.29 56.73 56.39 56.31 57.42 57.32 48.03 55.63 58.20 58.14 57.89 58.18 58.46 58.91 59.52 58.95 57.00 55.37 55.40 55.13 54.82 54.21 53.84 53.37 53.38 53.37 52.75 48.75 45.38 43.79 42.75 42.55 43.61 43.31 43.71
60.70 60.42 59.88 59.68 59.55 57.24 57.82 57.43 56.77 56.70 56.74 57.41 58.17 58.24 57.82 57.88 57.63 57.84 57.74 58.89 58.53 58.72 58.32 56.67 55.60 54.80 54.30 53.88 53.94 53.90 52.92 53.62 53.06 52.25 51.39 48.29 43.95 43.57 44.31 44.28 44.00 44.25 43.36
60.25 59.79 59.66 59.51 59.90 57.99 57.42 57.18 56.80 52.79 56.05 58.00 57.83 58.08 58.06 58.14 57.93 57.38 57.89 58.17 58.34 58.02 56.43 55.03 54.89 54.07 53.07 52.25 51.72 51.60 51.14 50.18 49.59 49.79 48.59 45.84 44.56 43.82 43.86 43.01 43.53 43.16 43.01
59.66 59.22 58.60 58.46 57.65 57.34 57.19 56.66 57.23 57.71 57.88 57.94 58.09 58.17 58.52 58.00 57.68 57.61 57.34 56.31 57.17 56.82 55.32 54.03 52.80 51.61 51.41 51.43 51.73 50.96 44.03 35.50 44.25 41.02 46.16 45.51 44.95 45.00 44.49 43.19 42.39 42.56 42.70
57.65 58.07 58.09 58.14 57.46 57.21 57.27 57.05 57.32 57.69 57.90 58.40 58.53 58.59 58.06 56.67 56.30 55.22 55.16 55.23 54.85 54.39 54.10 52.38 51.11 50.86 51.00 51.30 50.22 42.50 34.33 32.29 38.95 35.84 44.36 44.36 44.04 43.99 42.63 41.69 41.72 41.99 42.08